This is the latest recevied weather packets stored in our database for station/object N9XRG. If no packets are shown the sender has not sent any weather packets the latest 10 day(s).
| Time | Temp. | Humidity | Pressure | Rain* | Wind** | Luminosity | Snow |
|---|---|---|---|---|---|---|---|
| 1777985536 | 15° C | 85% | 1006.2 hPa | 0 mm | - | 165 W/m² | - |
| 1777985232 | 15° C | 85% | 1006.1 hPa | 0 mm | - | 127 W/m² | - |
| 1777984929 | 15° C | 86% | 1006 hPa | 0 mm | - | 127 W/m² | - |
| 1777984625 | 15° C | 87% | 1005.8 hPa | 0 mm | - | 111 W/m² | - |
| 1777984322 | 14.44° C | 88% | 1005.7 hPa | 0 mm | - | 161 W/m² | - |
| 1777984018 | 14.44° C | 88% | 1005.8 hPa | 0 mm | - | 149 W/m² | - |
| 1777983716 | 14.44° C | 88% | 1006.1 hPa | 0 mm | - | 120 W/m² | - |
| 1777983412 | 13.89° C | 88% | 1006.2 hPa | 0 mm | - | 114 W/m² | - |
| 1777983109 | 13.89° C | 88% | 1006.2 hPa | 0 mm | - | 83 W/m² | - |
| 1777982805 | 13.89° C | 88% | 1006.3 hPa | 0 mm | - | 88 W/m² | - |
| 1777982501 | 13.89° C | 89% | 1006.3 hPa | 0 mm | - | 93 W/m² | - |
| 1777982195 | 13.89° C | 89% | 1006.1 hPa | 0 mm | - | 106 W/m² | - |
| 1777981893 | 13.89° C | 89% | 1006.2 hPa | 0 mm | - | 88 W/m² | - |
| 1777981590 | 13.89° C | 89% | 1006.3 hPa | 0 mm | - | 92 W/m² | - |
| 1777981286 | 13.89° C | 89% | 1006.1 hPa | 0 mm | - | 94 W/m² | - |
| 1777980983 | 13.33° C | 90% | 1006.2 hPa | 0 mm | - | 76 W/m² | - |
| 1777980679 | 13.33° C | 91% | 1006.3 hPa | 0 mm | - | 78 W/m² | - |
| 1777980376 | 12.78° C | 91% | 1006.1 hPa | 0 mm | - | 51 W/m² | - |
| 1777980075 | 12.78° C | 92% | 1006.1 hPa | 0 mm | - | 33 W/m² | - |
| 1777979773 | 12.78° C | 92% | 1006 hPa | 0 mm | - | 17 W/m² | - |
| 1777979470 | 12.78° C | 92% | 1005.7 hPa | 0 mm | - | 19 W/m² | - |
| 1777979166 | 12.78° C | 92% | 1005.9 hPa | 0 mm | - | 11 W/m² | - |
| 1777978863 | 12.78° C | 93% | 1005.8 hPa | 0 mm | - | 10 W/m² | - |
| 1777978560 | 12.78° C | 93% | 1005.9 hPa | 0 mm | - | 8 W/m² | - |
| 1777978255 | 12.78° C | 93% | 1005.8 hPa | 0 mm | - | 5 W/m² | - |
* Rain latest hour (hover to see other rain measurements)
** Current wind speed in m/s (hover to see current wind gust speed)